Flag for U.S.A. Weather past 2 weeks in Hollywood, California, U.S.A.

Now
94 °F

Sunny.


Feels Like: 91 °F
Forecast: 64 / 92 °F
Wind: 13 mph from Southeast

Location: Van Nuys Airport

Current Time: Aug 30, 2014 at 4:15:38 PM

Latest Report: Aug 30, 2014 at 3:51 PM


Visibility: 10 mi

Pressure: 29.72 "Hg

Humidity: 24%

Dew point: 52 °F

Location of HollywoodLocation

Historic Weather in Hollywood — Graph

°F

Hollywood temperature yesterday

Maximum temperature yesterday: 93 °F (at 1:51 PM)
Minimum temperature yesterday: 68 °F (at 5:51 AM)
Average temperature yesterday: 80 °F

Past Weeks' High & Low Weather Summary

 TemperatureHumidityPressure
High100 °F (Aug 28, 1:51 PM)87% (Aug 23, 2:51 AM)30.02 "Hg (Aug 23, 2:51 AM)
Low62 °F (Aug 25, 6:51 AM)10% (Aug 28, 6:51 PM)29.73 "Hg (Aug 18, 3:51 PM)
Average77 °F46%29.89 "Hg
* Reported Aug 15 2:51 PM — Aug 30 2:51 PM, Hollywood, Weather by CustomWeather, © 2014

Note: Actual official high and low records may vary slightly from our data, if they occured in-between our weather recording intervals... More about our weather records

Advertising

Hollywood weather history for previous 24 hours

 ConditionsComfort  
Time TempWeatherWind HumidityBarometerVisibility
2:51 PM
Aug 30
96 °FSunny.13 mph26%29.73 "Hg10 mi
1:51 PM95 °FSunny.6 mph24%29.75 "Hg10 mi
12:51 PM92 °FSunny.3 mph27%29.78 "Hg10 mi
11:51 AM87 °FSunny.No wind31%29.80 "Hg10 mi
10:51 AM83 °FSunny.No wind40%29.82 "Hg10 mi
9:51 AM79 °FSunny.3 mph42%29.82 "Hg10 mi
8:51 AM73 °FSunny.No wind55%29.81 "Hg10 mi
7:51 AM68 °FSunny.No wind63%29.81 "Hg10 mi
6:51 AM66 °FClear.No wind68%29.80 "Hg10 mi
5:51 AM67 °FClear.No wind66%29.80 "Hg10 mi
4:51 AM68 °FClear.No wind70%29.79 "Hg10 mi
3:51 AM68 °FClear.No wind73%29.79 "Hg10 mi
2:51 AM70 °FClear.No wind68%29.78 "Hg10 mi
1:51 AM71 °FClear.3 mph61%29.79 "Hg10 mi
12:51 AM72 °FClear.3 mph53%29.80 "Hg10 mi
11:51 PM
Aug 29
74 °FClear.3 mph52%29.80 "Hg10 mi
10:51 PM76 °FClear.3 mph48%29.80 "Hg10 mi
9:51 PM78 °FClear.No wind42%29.80 "Hg10 mi
8:51 PM81 °FClear.3 mph34%29.80 "Hg10 mi
7:51 PM83 °FSunny.No wind26%29.78 "Hg10 mi
6:51 PM88 °FSunny.5 mph22%29.76 "Hg10 mi
5:51 PM91 °FSunny.7 mph17%29.76 "Hg10 mi
4:51 PM93 °FSunny.9 mph17%29.77 "Hg10 mi
Weather by CustomWeather, © 2014

See weather overviewHow to use our weather pages